Simultaneous Nadir Overpasses (SNOs) Predictions

Prediction of SNOs between AURA and NPP Satellite Orbit:

Table of predicted SNOs for the next 14.0 days since TLE Epoch: 8/11/2016
Index Date (AURA) Time (AURA) Lat,Lon (AURA) SZA (AURA ) Date (NPP) Time (NPP) Lat,Lon (NPP) SZA (NPP ) Distance(km) Time Diff (sec)
1 08/12/2016 10:35:20 79.12, -84.65 78.68 08/12/2016 10:34:41 79.11, -84.70 78.72 0.97 39
2 08/12/2016 11:24:39 -79.44, 85.06 101.78 08/12/2016 11:25:17 -79.45, 85.13 101.82 1.68 38
3 08/15/2016 02:51:46 79.18, 31.62 79.38 08/15/2016 02:51:32 79.17, 31.51 79.41 2.60 14
4 08/15/2016 03:41:05 -79.50,-158.63 101.08 08/15/2016 03:42:08 -79.50,-158.63 101.13 0.14 63
5 08/17/2016 18:18:53 -79.01, -21.17 99.59 08/17/2016 18:17:46 -79.01, -21.17 99.54 0.13 67
6 08/17/2016 19:08:09 79.39, 148.87 79.89 08/17/2016 19:08:19 79.40, 149.01 79.85 2.92 10
7 08/20/2016 10:35:19 -79.10, 95.26 98.88 08/20/2016 10:34:37 -79.10, 95.25 98.85 0.32 42
8 08/20/2016 11:24:35 79.48, -94.66 80.60 08/20/2016 11:25:10 79.49, -94.53 80.54 2.84 35
9 08/23/2016 02:51:44 -79.23,-148.09 98.20 08/23/2016 02:51:27 -79.23,-148.09 98.19 0.12 17
10 08/23/2016 03:41:04 79.44, 20.97 81.50 08/23/2016 03:42:05 79.44, 20.84 81.49 2.89 61
11 08/25/2016 18:18:50 79.00, 158.79 82.98 08/25/2016 18:17:41 79.00, 158.78 83.03 0.26 69




NCC Satellite Simultaneous Nadir Overpasses (SNOs) Prediction Service
